#timestamp,LO_Frequency,Hit,StdDev 
1617859215.2,286046990.6,P
1617859235.0,286046994.3,P
1617859235.9,286046994.3,P
1617859255.8,286046994.7,N
1617859275.6,286046994.7,N
1617859295.4,286046992.5,Y
1617859315.3,286046999.1,P
1617859335.1,286046999.4,N
1617859355.9,286046998.6,N
1617859375.7,286046999.5,N
1617859395.5,286046999.6,N
1617859415.4,286046997.4,N
1617859435.2,286046997.4,N
1617859455.0,286046996.8,N
1617859455.9,286046996.8,N
1617859475.8,286046997.8,N
1617859495.6,286046995.1,N
1617859515.5,286046995.7,N
1617859535.3,286046997.7,N
1617859555.1,286046995.1,N
1617859575.9,286046994.9,N
1617859595.7,286046998.0,N
1617859615.5,286046995.5,N
1617859635.4,286046995.6,N
1617859655.2,286046996.1,N
1617859675.1,286046997.5,N
1617859676.0,286046997.5,N
1617859695.8,286046995.6,N
1617859715.6,286046995.7,N
1617859735.5,286046993.5,Y
1617859755.3,286046996.7,P
1617859775.2,286046997.0,P
1617859795.9,286046999.3,P
1617859815.7,286046999.2,N
1617859835.6,286046998.7,N
1617859855.4,286046999.2,N
1617859875.2,286047001.2,N
1617859895.1,286047000.8,N
1617859896.0,286047000.8,N
1617859915.8,286046999.5,N
1617859935.7,286047000.9,N
1617859955.5,286046998.3,N
1617859975.3,286046998.9,N
1617859995.2,286046996.8,N
1617860015.0,286046997.9,N
1617860015.9,286046997.9,N
1617860035.8,286046996.1,N
1617860055.6,286046995.8,N
1617860075.4,286046995.9,N
1617860095.3,286046995.4,N
1617860115.1,286046995.3,N
1617860116.0,286046995.3,N
1617860135.8,286046999.0,N
1617860155.7,286046998.9,N
1617860175.5,286046998.5,N
1617860195.4,286046998.5,N
1617860215.2,286046998.8,N
1617860235.0,286046999.3,N
1617860235.9,286046999.3,N
1617860255.8,286047001.1,N
1617860275.6,286046998.9,N
1617860295.4,286046996.9,N
1617860315.3,286046998.0,N
1617860335.1,286046996.1,N
1617860355.9,286046997.6,N
1617860375.7,286046995.1,N
1617860395.5,286046997.8,N
1617860415.4,286046997.6,N
1617860435.2,286046997.7,N
1617860455.0,286046997.6,N
1617860455.9,286046997.6,N
1617860475.8,286046995.5,Y
1617860495.6,286046999.3,P
1617860515.5,286047000.6,N
1617860535.3,286047000.5,N
1617860555.1,286047000.7,N
1617860575.9,286047002.2,N
1617860595.7,286047002.3,N
1617860615.5,286047002.1,N
1617860635.4,286047001.4,N
1617860655.2,286047000.4,N
1617860675.1,286046998.9,N
1617860676.0,286046998.9,N
1617860695.8,286046997.3,N
1617860715.6,286046995.6,N
1617860735.5,286046995.6,N
1617860755.3,286046997.4,N
1617860775.2,286046995.5,N
1617860795.9,286046995.2,N
1617860815.7,286046995.5,N
1617860835.6,286046995.9,N
1617860855.4,286046996.3,N
1617860875.2,286046994.4,N
1617860895.1,286046994.4,N
1617860896.0,286046994.4,N
1617860915.8,286046991.8,Y
1617860935.7,286046993.9,P
1617860955.5,286046994.1,N
1617860975.3,286046996.3,N
1617860995.2,286046996.2,N
1617861015.0,286046995.6,N
1617861015.9,286046995.6,Y
1617861035.8,286046998.4,P
1617861055.6,286046998.7,N
1617861075.4,286046999.2,N
1617861095.3,286046997.8,N
1617861145.1,286046999.3,E
1617861155.1,286046998.8,N
1617861156.0,286046998.8,P
1617861175.8,286047000.6,P
1617861195.6,286047002.2,N
1617861215.5,286047001.8,N
1617861235.3,286047004.3,N
1617861255.1,286047001.7,N
1617861275.9,286047003.7,N
1617861295.7,286047004.3,N
1617861315.6,286047001.5,N
1617861335.4,286047002.5,N
1617861355.2,286047002.5,N
1617861375.1,286047001.4,N
1617861376.0,286047001.4,N
1617861395.8,286047002.4,N
1617861415.6,286047002.5,N
1617861435.5,286047000.3,N
1617861455.3,286047001.3,N
1617861475.2,286047001.9,N
1617861495.9,286047002.8,N
1617861515.7,286047000.3,N
1617861535.6,286047000.3,N
1617861555.4,286047000.1,N
1617861575.2,286047002.2,N
1617861595.1,286047002.1,N
1617861596.0,286047002.1,N
